map of BSF home
BSF - Airport
Location
City:  Camp Pohakuloa, Hawaii, Hawaii, United States
Name:Bradshaw AAF
ICAO:PHSF
IATA:BSF
FAA LID:BSF

Details
Type:Airport (Airfield)
Use:Military
Latitude:1945'36"N (19.760013)
Longitude:15533'14"W (-155.553765)
Datum:WGS 1984
Elevation:6190 ft (1887 m)
Variation:9.45E (WMM2015v2 magnetic declination)
-0.02 annual change
Runways:1
Longest:3695 × 90 ft (1126 × 27.5 m), paved

Time
Time Zone:UTC-10
Local Time:

Weather
METAR:PHSF 041356Z AUTO 13003KT 10SM CLR 06/03 A3017 RMK AO2 SLP110 WND DATA ESTMD T00580033 PWINO $

Related Locations
Nearby:
Farthest:FBMM: 12384 mi / 19930 km
Makalamabedi [Makalamabedi Airport], NW, BW

Find:

   beyond  
but within

Other Information
Maps:
NOTAMs:
Links:
Sources:

  
  • flag of United States
  • flag of Hawaii
  

Sectional Chart

Flight Planning
at skyvector.com

Satellite Image

Google Maps Satellite view

 

Copyright © 2004-2019 Karl L. Swartz. All rights reserved.
The Great Circle Mapper name and logo are trademarks of the Great Circle Mapper.
All other trademarks mentioned herein belong to their respective owners.
Please see credits for attibutions and further copyright information.

  Follow gcmap on Facebook Follow gcmap on Twitter GCmap on LinkedIn

hCard Microformat

Geo Microformat